Copper Harbor, MI

8:10 PM EST on February 22, 2017 (GMT -0500)
Copper Harbor

Weather History for KP59 - December, 2012

Change the Weather History Date:

Saturday, December 22, 2012

  Actual Average Record
Temperature  
Mean Temperature 26 °F -  
Max Temperature 30 °F 26 °F 41 °F (2001)
Min Temperature 21 °F 16 °F 0 °F (1998)
Degree Days  
Heating Degree Days 40    
Moisture  
Dew Point 20 °F    
Average Humidity 79    
Maximum Humidity 89    
Minimum Humidity 69    
Precipitation  
Precipitation 0.00 in - - ()
Sea Level Pressure  
Sea Level Pressure 29.99 in    
Wind  
Wind Speed 14 mph (NNW)    
Max Wind Speed 26 mph    
Max Gust Speed 33 mph    
Averages and records for this station are not official NWS values.
T = Trace of Precipitation, MM = Missing Value Source: NWS Daily Summary

Daily Weather History Graph

Daily Weather History Graph

Search for Another Location

Airport or City:

Trip Planner

Search our weather history database for the weather conditions in past years. The results will help you decide how hot, cold, wet, or windy it might be!

Date:

Astronomy

Dec. 22, 2012 Rise Set
Actual Time 8:37 AM EST 5:03 PM EST
Civil Twilight 8:01 AM EST 5:39 PM EST
Nautical Twilight 7:21 AM EST 6:19 PM EST
Astronomical Twilight 6:44 AM EST 6:56 PM EST
Moon 1:33 PM EST (12/22) 3:08 AM EST (12/22)
Length of Visible Light 9h 38m
Length of Day
8h 26m
Waxing Gibbous, 73% of the Moon is Illuminated
Dec 22
Waxing Gibbous
Dec 28
Full
Jan 4
Last Quarter
Jan 11
New
Jan 18
First Quarter

Hourly Weather History & Observations

Time (EST) Temp. Windchill Dew Point Humidity Pressure Visibility Wind Dir Wind Speed Gust Speed Precip Events Conditions
12:51 AM 23.0 °F 8.3 °F 19.0 °F 85% 30.10 in - North 19.6 mph 27.6 mph N/A   Unknown
1:51 AM 21.9 °F 6.9 °F 18.0 °F 85% 30.10 in - North 19.6 mph - N/A   Unknown
2:51 AM 21.9 °F 7.3 °F 19.0 °F 89% 30.10 in - North 18.4 mph 27.6 mph N/A   Unknown
3:51 AM 21.9 °F 7.8 °F 19.0 °F 89% 30.11 in - North 17.3 mph 24.2 mph N/A   Unknown
4:51 AM 23.0 °F 9.6 °F 19.0 °F 85% 30.10 in - North 16.1 mph - N/A   Unknown
5:51 AM 24.1 °F 11.5 °F 21.0 °F 88% 30.09 in - North 15.0 mph - N/A   Unknown
6:51 AM 25.0 °F 11.7 °F 21.0 °F 85% 30.09 in - North 17.3 mph - N/A   Unknown
7:51 AM 25.0 °F 13.1 °F 19.9 °F 81% 30.08 in - North 13.8 mph - N/A   Unknown
8:51 AM 24.1 °F 14.4 °F 18.0 °F 77% 30.07 in - North 9.2 mph - N/A   Unknown
9:51 AM 25.0 °F - 19.0 °F 78% 30.06 in - Calm Calm - N/A   Unknown
10:51 AM 26.1 °F 21.9 °F 19.9 °F 78% 30.05 in - West 3.5 mph - N/A   Unknown
11:51 AM 28.0 °F 24.2 °F 21.0 °F 75% 30.02 in - Variable 3.5 mph - N/A   Unknown
12:51 PM 28.9 °F 23.9 °F 19.9 °F 69% 29.99 in - WNW 4.6 mph - N/A   Unknown
1:51 PM 30.0 °F 25.2 °F 23.0 °F 75% 29.95 in - SW 4.6 mph - N/A   Unknown
2:51 PM 30.0 °F 25.2 °F 24.1 °F 79% 29.92 in - Variable 4.6 mph - N/A   Unknown
3:51 PM 30.0 °F 23.2 °F 21.0 °F 69% 29.93 in - WNW 6.9 mph - N/A   Unknown
4:51 PM 28.0 °F 21.7 °F 21.0 °F 75% 29.91 in - WSW 5.8 mph - N/A   Unknown
5:51 PM 26.1 °F 20.5 °F 19.9 °F 78% 29.91 in - WSW 4.6 mph - N/A   Unknown
6:51 PM 25.0 °F 18.1 °F 19.9 °F 81% 29.91 in - WSW 5.8 mph - N/A   Unknown
7:51 PM 26.1 °F 21.9 °F 19.9 °F 78% 29.90 in - Variable 3.5 mph - N/A   Unknown
8:44 PM 30.2 °F 17.8 °F 23.0 °F 75% 29.84 in - NNE 19.6 mph - N/A   Unknown
8:51 PM 30.9 °F 17.5 °F 23.0 °F 72% 29.88 in - NNE 24.2 mph 29.9 mph N/A   Unknown
9:51 PM 28.9 °F 15.4 °F 21.9 °F 75% 29.89 in - NNE 21.9 mph 27.6 mph N/A   Unknown
10:51 PM 26.1 °F 10.4 °F 21.0 °F 81% 29.91 in - NNE 26.5 mph 33.4 mph N/A   Unknown
11:51 PM 24.1 °F 8.0 °F 19.9 °F 84% 29.94 in - NNE 25.3 mph 32.2 mph N/A   Unknown